Location: Unspecified
(40.7945°N, 0.0000°E)
Time: 19:35:51
(UTC+00:00)

Explorer 7 - Pass Details

Date: 23 June 2021
Orbit: 484 x 676 km, 50.3° (Epoch: 30 July)

Event Time Altitude Azimuth Distance (km) Brightness Sun altitude
Rises 03:29:17 0° 287° (WNW) 2,905 10.2 -9.8°
Reaches altitude 10° 03:32:53 10° 259° (W) 1,946 9.1 -9.3°
Maximum altitude 03:34:47 13° 234° (SW) 1,753 8.7 -9.0°
Drops below altitude 10° 03:36:38 10° 208° (SSW) 1,887 9.0 -8.8°
Sets 03:40:01 0° 179° (S) 2,727 10.0 -8.3°
